#timestamp,LO_Frequency,Hit 
1506355215.4,286047002.5,N
1506355235.2,286047001.6,N
1506355255.1,286047004.0,N
1506355256.0,286047004.0,N
1506355275.8,286047004.2,N
1506355295.6,286047003.6,N
1506355315.5,286047006.0,N
1506355335.3,286047002.9,N
1506355355.1,286047003.9,N
1506355375.9,286047002.6,N
1506355395.7,286047002.5,N
1506355415.5,286046999.3,N
1506355435.4,286046993.0,N
1506355455.2,286046995.7,N
1506355475.0,286047001.0,N
1506355475.9,286047001.0,N
1506355495.8,286047000.4,N
1506355515.6,286046996.6,N
1506355535.4,286047000.6,N
1506355555.2,286047002.7,N
1506355575.1,286047001.9,N
1506355576.0,286047001.9,N
1506355595.8,286047003.9,N
1506355615.6,286047002.2,N
1506355635.5,286047002.2,N
1506355655.3,286047001.5,N
1506355675.1,286047003.9,N
1506355695.9,286047003.5,N
1506355715.7,286047005.5,N
1506355735.5,286047003.5,N
1506355755.4,286047005.5,N
1506355775.2,286047005.1,N
1506355795.0,286047004.4,N
1506355795.9,286047004.4,N
1506355815.8,286047000.2,N
1506355835.6,286047000.5,N
1506355855.4,286047000.5,N
1506355875.3,286046994.6,N
1506355895.1,286046997.8,N
1506355896.0,286046997.8,N
1506355915.8,286046998.0,N
1506355935.6,286046997.1,N
1506355955.5,286046995.7,N
1506355975.3,286046995.6,N
1506355995.1,286047000.3,N
1506356015.9,286047002.2,N
1506356035.7,286047002.4,N
1506356055.5,286047002.0,N
1506356075.4,286047002.2,N
1506356095.2,286047001.4,N
1506356115.0,286047003.1,N
1506356115.9,286047003.1,N
1506356135.8,286047005.1,N
1506356155.6,286047005.8,N
1506356175.4,286047005.7,N
1506356195.3,286047004.6,N
1506356215.1,286047007.2,N
1506356216.0,286047007.2,N
1506356235.8,286047006.9,N
1506356255.7,286047006.9,N
1506356275.5,286047006.1,N
1506356295.3,286047005.3,N
1506356315.1,286047005.0,N
1506356335.9,286047007.0,N
1506356355.7,286047008.7,N
1506356375.5,286047008.7,N
1506356395.4,286047006.6,N
1506356415.2,286047008.8,N
1506356435.0,286047008.6,N
1506356435.9,286047008.6,N
1506356455.8,286047006.1,N
1506356475.6,286047008.7,N
1506356495.4,286047008.3,N
1506356515.3,286047008.3,N
1506356535.1,286047008.9,P
1506356555.8,286047004.0,N
1506356575.7,286047003.7,N
1506356595.5,286047003.1,N
1506356615.3,286047003.9,N
1506356635.2,286046999.7,N
1506356655.9,286047002.8,N
1506356675.7,286047002.4,N
1506356695.6,286047001.0,N
1506356715.4,286046995.5,N
1506356735.2,286046996.8,N
1506356755.0,286047001.2,N
1506356755.9,286047001.2,N
1506356775.8,286046999.8,N
1506356795.6,286046998.7,N
1506356815.4,286046995.6,N
1506356835.3,286046997.0,N
1506356855.1,286047000.1,N
1506356875.8,286047001.7,N
1506356895.7,286046999.7,N
1506356915.5,286047002.1,N
1506356935.3,286047003.2,N
1506356955.2,286047003.5,N
1506356975.9,286047005.9,N
1506356995.7,286047003.7,N
1506357015.6,286046997.4,N
1506357035.4,286047000.1,N
1506357055.2,286047002.0,N
1506357075.0,286047003.7,N
1506357075.9,286047003.7,N
1506357095.8,286047001.8,N
1506357115.6,286047001.4,N
1506357135.4,286047004.1,N
1506357155.3,286047002.7,N
1506357175.1,286047001.3,N
1506357195.8,286047004.0,N
1506357215.7,286047004.0,N
1506357235.5,286047004.3,N
1506357255.3,286047003.9,N
1506357275.2,286047003.8,N
1506357295.9,286047002.7,N
1506357315.7,286047002.0,N
1506357335.6,286047001.7,N
1506357355.4,286047001.4,N
1506357375.2,286047004.0,N
1506357395.0,286047003.2,N
1506357395.9,286047003.2,N
1506357415.8,286047006.0,P
1506357435.6,286047001.6,N
1506357455.5,286047004.3,N
1506357475.3,286047001.6,N
1506357495.1,286047002.0,N
1506357515.8,286047002.3,N
1506357535.7,286047001.3,N
1506357555.5,286047002.0,N
1506357575.3,286046999.7,N
1506357595.2,286047000.0,N
1506357615.0,286047000.3,N
1506357615.9,286047000.3,N
1506357635.7,286046998.1,N
1506357655.6,286047000.7,N
1506357675.4,286046999.9,N
1506357695.2,286047000.2,N
1506357715.1,286047000.4,N
1506357716.0,286047000.4,N
1506357735.8,286046994.9,N
1506357755.6,286046997.9,N
1506357775.5,286046999.6,N
1506357795.3,286046998.9,N
1506357815.1,286046998.3,N
1506357835.8,286047001.2,N
1506357855.7,286046999.3,N
1506357875.5,286047001.0,N
1506357895.3,286047000.1,N
1506357915.2,286047000.8,N
1506357935.0,286046998.6,N
1506357935.9,286046998.6,N
1506357955.7,286047000.4,N
1506357975.6,286047000.3,N
1506357995.4,286046999.4,N
1506358015.2,286046999.2,N
1506358035.1,286046999.5,N
1506358036.0,286046999.5,N
1506358055.8,286046998.6,N
1506358075.6,286047000.4,N
1506358095.5,286046998.5,N
1506358115.3,286046997.6,N
1506358135.1,286046998.6,N
1506358155.9,286047000.4,N
1506358175.7,286047002.2,N
1506358195.5,286047002.7,N
1506358215.3,286047000.0,N
1506358235.2,286047002.0,N
1506358255.0,286047002.4,N
1506358255.9,286047002.4,N
1506358275.7,286047002.4,N
1506358295.6,286046999.2,N
1506358315.4,286046995.5,P
1506358335.2,286046999.4,N
1506358355.1,286047000.6,N
1506358356.0,286047000.6,N
1506358375.8,286046998.5,N
1506358395.6,286047001.1,N
1506358415.5,286047000.5,N
1506358435.3,286047000.0,N
1506358455.1,286047000.0,N
1506358475.9,286047002.4,N
1506358495.7,286047001.3,N
1506358515.5,286046996.6,N
1506358535.4,286046996.8,N
1506358555.2,286047000.8,N
1506358575.0,286047002.7,N
1506358575.9,286047002.7,N
1506358595.8,286046999.7,N
1506358615.6,286047001.6,N
1506358635.4,286047003.5,N
1506358655.2,286047003.9,N
1506358675.1,286047002.1,N
1506358676.0,286047002.1,N
1506358695.8,286047002.4,N
1506358715.6,286047001.9,N
1506358735.5,286047001.6,N
1506358755.3,286047002.0,N
1506358775.1,286047001.1,N
1506358795.9,286046999.7,N
